{"data":{"norad_id":67764,"intl_designator":"2026-030A","name":"KUIPER-00159","alt_names":[],"object_type":"PAYLOAD","status":"ACTIVE","operator":null,"country":"US","launch_date":"2026-02-12","launch_site_code":"FRGUI","launch_vehicle":null,"mission":null,"orbit_class":"UNKNOWN","rcs_meters":null,"size_class":null,"mass_kg":null,"dimensions":null,"purposes":[],"wikipedia_slug":null,"has_3d_model":false,"image_url":null,"decayed_at":null,"tle_current":{"epoch":"2026-05-25T04:00:16.047360Z","epoch_age_seconds":54471,"freshness":"FRESH","line1":"1 67764U 26030A   26145.16685240  .00014771  00000+0  40036-3 0  9996","line2":"2 67764  51.8841 209.7327 0006237 328.1839  31.8771 15.37851718 16854","mean_motion":15.37851718,"eccentricity":0.0006237,"inclination_deg":51.8841,"raan_deg":209.7327,"arg_perigee_deg":328.1839,"mean_anomaly_deg":31.8771,"bstar":0.00040036,"rev_number":1685,"period_min":93.637116189118,"perigee_km":448.202955434,"apogee_km":456.72344612445,"semimajor_km":6830.6002007792,"source":"CELESTRAK","updated_at":"2026-05-25T13:38:07.253573Z"}}}